Location: *
(40.7873°S, 98.7174°E)
Time: 11:23:13
(UTC+00:00)

NOSS 3-4 (C) - Pass Details

Date: 29 September 2022
Orbit: 836 x 1376 km, 63.4° (Epoch: 25 November)

Event Time Altitude Azimuth Distance (km) Brightness Sun altitude
Exits shadow 19:03:07 51° 102° (ESE) 1,648 4.7 -40.1°
Drops below altitude 10° 19:09:29 10° 139° (SE) 3,304 6.9 -39.4°
Sets 19:12:15 0° 142° (SE) 4,216 7.7 -39.1°
